Terug naar catalogus

STARLINK-33801

ActiefCommunicatieVLEO
NORAD 63963·PAYLOAD·🇺🇸 United States

Gelanceerd May 13, 2025 vanaf Cape Canaveral Space Force Station

Loading…

Volgende Passages (komende 24 uur)

TLE

VersSource: CelesTrak SupGP

Epoch: Sep 14, 2026, 22:51 UTC

1 63963C 25099M   26257.95256944 -.00019343  00000+0 -70066-3 0  2578
2 63963  42.9998 187.2263 0001731 271.0531  71.6265 15.27585607    14

Volg STARLINK-33801 in realtime met AllMySat

Download on the App Store